IST,Max TemperatureF,Mean TemperatureF,Min TemperatureF,Max Dew PointF,MeanDew PointF,Min DewpointF,Max Humidity, Mean Humidity, Min Humidity, Max Sea Level PressureIn, Mean Sea Level PressureIn, Min Sea Level PressureIn, Max VisibilityMiles, Mean VisibilityMiles, Min VisibilityMiles, Max Wind SpeedMPH, Mean Wind SpeedMPH, Max Gust SpeedMPH,PrecipitationIn, CloudCover, Events, WindDirDegrees
2012-3-1,53,48,42,48,44,39,100,84,62,30.27,30.20,30.09,6,6,6,16,9,,0.00,4,Rain,173
2012-3-2,51,48,44,48,45,43,100,86,76,30.24,30.07,29.77,6,6,4,24,14,,0.00,5,,129
2012-3-3,51,45,39,48,40,34,94,82,62,30.04,29.85,29.68,6,6,2,23,15,,0.00,5,Rain,211
2012-3-4,46,39,32,37,35,30,100,83,57,30.39,30.21,30.04,6,6,6,20,8,29,0.00,3,Rain,274
2012-3-5,51,45,39,43,38,36,93,83,58,30.45,30.40,30.33,6,6,6,10,7,,0.00,3,Rain,251
2012-3-6,53,46,39,52,45,36,100,91,81,30.33,30.09,29.89,6,6,2,17,12,,0.00,6,Rain,160
2012-3-7,51,46,42,52,40,34,100,80,62,30.30,30.05,29.86,6,6,3,29,19,52,0.00,4,Rain,263
2012-3-8,55,48,42,46,43,37,87,78,63,30.42,30.38,30.30,6,6,6,23,12,,0.00,5,,223
2012-3-9,57,54,50,52,50,45,100,90,76,30.57,30.44,30.36,6,6,4,18,13,,0.00,6,,219
2012-3-10,55,52,50,50,50,48,100,95,82,30.71,30.66,30.57,6,6,6,12,8,,0.00,6,,257
2012-3-11,53,50,48,50,48,46,100,90,77,30.71,30.67,30.60,6,6,1,7,3,,0.00,7,,256
2012-3-12,50,48,46,46,44,43,93,87,76,30.60,30.56,30.54,6,6,6,10,4,,0.00,7,,160
2012-3-13,53,48,44,46,44,43,93,84,72,30.54,30.51,30.45,6,6,6,13,7,,0.00,7,,134
2012-3-14,55,50,44,45,43,41,93,82,67,30.45,30.35,30.27,6,5,2,14,10,,0.00,6,,145
2012-3-15,55,50,44,50,45,39,88,83,76,30.27,30.12,29.98,6,6,4,17,10,,0.00,6,Rain,152
2012-3-16,53,47,39,50,45,37,100,88,71,29.98,29.88,29.80,6,6,2,22,11,,0.00,6,Rain,205
2012-3-17,48,44,39,43,39,37,100,87,76,29.92,29.81,29.77,6,6,4,13,7,,0.00,5,Rain,203
2012-3-18,51,43,35,39,38,34,100,81,58,30.42,30.20,29.95,6,6,6,16,10,,0.00,2,Rain,297
2012-3-19,53,47,41,46,42,37,93,79,67,30.48,30.44,30.39,6,6,6,22,10,,0.00,6,Rain,202
2012-3-20,55,52,50,46,44,43,82,75,63,30.51,30.48,30.45,6,6,6,16,11,,0.00,6,,186
2012-3-21,51,48,44,45,42,39,87,76,66,30.48,30.45,30.42,6,6,6,16,10,,0.00,7,,147
2012-3-22,57,47,37,48,42,36,94,82,63,30.39,30.25,30.18,6,5,4,20,9,,0.00,6,Rain,83
2012-3-23,53,48,44,46,45,43,93,85,72,30.18,30.14,30.12,6,6,4,22,12,,0.00,6,Rain,121
2012-3-24,59,54,48,48,46,43,88,76,63,30.27,30.16,30.12,6,6,6,21,15,,0.00,6,,112
2012-3-25,66,57,48,50,48,43,94,76,52,30.51,30.40,30.27,5,4,2,15,11,,0.00,3,,132
2012-3-26,66,54,42,48,44,39,93,71,49,30.54,30.50,30.48,6,5,4,15,8,,0.00,0,,119
2012-3-27,66,54,41,45,41,36,93,66,34,30.57,30.55,30.51,6,5,3,16,7,,0.00,0,,111
2012-3-28,66,52,37,45,40,36,93,69,34,30.57,30.55,30.51,5,3,1,8,4,,0.00,0,,41
2012-3-29,66,54,41,50,42,36,100,74,32,30.57,30.52,30.48,6,6,5,9,3,,0.00,4,Fog,339
2012-3-30,51,46,42,46,45,43,100,89,82,30.48,30.41,30.33,6,6,3,10,7,,0.00,6,,337
2012-3-31,53,50,48,45,43,41,87,78,67,30.33,30.24,30.21,6,6,6,14,8,,0.00,6,,11